Weather History for Fargo, ND

Change the Weather History Date:

Wednesday, September 4, 2013

  Actual Average Record
Temperature  
Mean Temperature 68 °F 64 °F  
Max Temperature 82 °F 76 °F 98 °F (1979)
Min Temperature 53 °F 52 °F 32 °F (1885)
Degree Days  
Heating Degree Days 0 4  
Month to date heating degree days 11 13  
Since 1 July heating degree days 45 63  
Cooling Degree Days 3 3  
Month to date cooling degree days 9 12  
Year to date cooling degree days 627 517  
Growing Degree Days 18 (Base 50)    
Moisture  
Dew Point 48 °F    
Average Humidity 54    
Maximum Humidity 83    
Minimum Humidity 25    
Precipitation  
Precipitation 0.00 in 0.10 in 2.57 in (1881)
Month to date precipitation 0.00 0.39  
Year to date precipitation 21.92 16.45  
Snow  
Snow 0.00 in 0.00 in 0.00 in ()
Month to date snowfall 0.0 0.0  
Since 1 July snowfall 0.0 0.0  
Since 1 September snowfall 0.0 0.0  
Snow Depth 0.00 in    
Sea Level Pressure  
Sea Level Pressure 30.12 in    
Wind  
Wind Speed 9 mph (NNE)    
Max Wind Speed 16 mph    
Max Gust Speed 26 mph    
Visibility 10 miles    
Events      
T = Trace of Precipitation, MM = Missing Value Source: NWS Daily Summary

Daily Weather History Graph

Daily Weather History Graph

Search for Another Location

Airport:

Trip Planner

Search our weather history database for the weather conditions in past years. The results will help you decide how hot, cold, wet, or windy it might be!

Date:

Astronomy

Sep. 04, 2013 Rise Set
Actual Time 6:51 AM CDT 8:00 PM CDT
Civil Twilight 6:19 AM CDT 8:31 PM CDT
Nautical Twilight 5:42 AM CDT 9:08 PM CDT
Astronomical Twilight 5:02 AM CDT 9:48 PM CDT
Moon 6:04 AM CDT (9/4) 7:18 PM CDT (9/4)
Length of Visible Light 14h 11m
Length of Day
13h 09m
Waning Crescent, 1% of the Moon is Illuminated
Sep 4
Waning Crescent
Sep 5
New
Sep 12
First Quarter
Sep 19
Full
Sep 26
Last Quarter

Hourly Weather History & Observations

Time (CDT) Temp. Dew Point Humidity Pressure Visibility Wind Dir Wind Speed Gust Speed Precip Events Conditions
12:53 AM 68.0 °F 61.0 °F 78% 30.02 in 10.0 mi North 9.2 mph - N/A   Clear
1:53 AM 64.9 °F 44.1 °F 47% 30.04 in 10.0 mi North 11.5 mph - N/A   Clear
2:53 AM 62.1 °F 45.0 °F 53% 30.06 in 10.0 mi North 11.5 mph 20.7 mph N/A   Clear
3:53 AM 61.0 °F 46.9 °F 60% 30.06 in 10.0 mi North 12.7 mph - N/A   Clear
4:53 AM 57.9 °F 48.0 °F 70% 30.08 in 10.0 mi North 8.1 mph - N/A   Clear
5:53 AM 55.9 °F 48.0 °F 75% 30.10 in 10.0 mi North 9.2 mph - N/A   Clear
6:53 AM 54.0 °F 48.0 °F 80% 30.12 in 10.0 mi North 8.1 mph - N/A   Clear
7:53 AM 54.0 °F 48.0 °F 80% 30.13 in 10.0 mi North 9.2 mph - N/A   Clear
8:53 AM 59.0 °F 51.1 °F 75% 30.14 in 10.0 mi NNE 9.2 mph - N/A   Clear
9:53 AM 63.0 °F 53.1 °F 70% 30.15 in 10.0 mi NNE 8.1 mph - N/A   Clear
10:53 AM 64.9 °F 54.0 °F 68% 30.17 in 10.0 mi NNE 9.2 mph - N/A   Clear
11:53 AM 69.1 °F 54.0 °F 58% 30.17 in 10.0 mi NNE 8.1 mph - N/A   Clear
12:53 PM 77.0 °F 48.9 °F 37% 30.16 in 10.0 mi NNE 13.8 mph 24.2 mph N/A   Clear
1:53 PM 80.1 °F 48.0 °F 32% 30.14 in 10.0 mi NE 9.2 mph - N/A   Clear
2:53 PM 80.1 °F 42.1 °F 26% 30.13 in 10.0 mi NNE 10.4 mph - N/A   Clear
3:53 PM 81.0 °F 41.0 °F 24% 30.13 in 10.0 mi NNE 6.9 mph - N/A   Clear
4:53 PM 81.0 °F 41.0 °F 24% 30.12 in 10.0 mi NE 5.8 mph - N/A   Clear
5:53 PM 78.1 °F 42.1 °F 28% 30.14 in 10.0 mi NE 9.2 mph - N/A   Clear
6:53 PM 73.0 °F 46.0 °F 38% 30.14 in 10.0 mi NNE 9.2 mph - N/A   Clear
7:53 PM 68.0 °F 46.0 °F 45% 30.14 in 10.0 mi NNE 5.8 mph - N/A   Clear
8:53 PM 63.0 °F 46.9 °F 56% 30.15 in 10.0 mi NE 4.6 mph - N/A   Clear
9:53 PM 62.1 °F 46.9 °F 58% 30.15 in 10.0 mi NE 5.8 mph - N/A   Clear
10:53 PM 59.0 °F 48.0 °F 67% 30.17 in 10.0 mi ENE 6.9 mph - N/A   Clear
11:53 PM 57.0 °F 46.9 °F 69% 30.18 in 10.0 mi NE 5.8 mph - N/A   Clear